Camarillo, CA

3:05 PM PDT on April 23, 2017 (GMT -0700)
Camarillo

Weather History for KCMA - August, 2013

Change the Weather History Date:

Monday, August 19, 2013

  Actual Average Record
Temperature  
Mean Temperature 67 °F 68 °F  
Max Temperature 74 °F 77 °F 82 °F (2012)
Min Temperature 60 °F 59 °F 50 °F (1999)
Degree Days  
Heating Degree Days 0 0  
Month to date heating degree days 1 0  
Since 1 June heating degree days 3 53  
Since 1 July heating degree days 3 10  
Cooling Degree Days 2 3  
Month to date cooling degree days 35 57  
Year to date cooling degree days 404 182  
Since 1 June cooling degree days 298 151  
Growing Degree Days 16 (Base 50)    
Moisture  
Dew Point 59 °F    
Average Humidity 77    
Maximum Humidity 93    
Minimum Humidity 61    
Precipitation  
Precipitation 0.00 in 0.00 in 0.70 in (1983)
Month to date precipitation 0.00 0.02  
Year to date precipitation 2.19 11.02  
Since 1 July precipitation 0.04  
Sea Level Pressure  
Sea Level Pressure 29.93 in    
Wind  
Wind Speed 4 mph (WSW)    
Max Wind Speed 12 mph    
Max Gust Speed 16 mph    
Visibility 7 miles    
Events      
T = Trace of Precipitation, MM = Missing Value Source: NWS Daily Summary

Daily Weather History Graph

Daily Weather History Graph

Search for Another Location

Airport or City:

Trip Planner

Search our weather history database for the weather conditions in past years. The results will help you decide how hot, cold, wet, or windy it might be!

Date:

Astronomy

Aug. 19, 2013 Rise Set
Actual Time 6:20 AM PDT 7:38 PM PDT
Civil Twilight 5:54 AM PDT 8:04 PM PDT
Nautical Twilight 5:23 AM PDT 8:35 PM PDT
Astronomical Twilight 4:50 AM PDT 9:08 PM PDT
Moon 6:33 PM PDT (8/19) 4:47 AM PDT (8/19)
Length of Visible Light 14h 10m
Length of Day
13h 17m
Waxing Gibbous, 98% of the Moon is Illuminated
Aug 19
Waxing Gibbous
Aug 20
Full
Aug 28
Last Quarter
Sep 5
New
Sep 12
First Quarter

Hourly Weather History & Observations

Time (PDT) Temp. Dew Point Humidity Pressure Visibility Wind Dir Wind Speed Gust Speed Precip Events Conditions
12:55 AM 61.0 °F 57.9 °F 90% 29.93 in 7.0 mi Calm Calm - N/A   Overcast
1:45 AM 60.8 °F 57.2 °F 88% 29.90 in 6.0 mi SW 3.5 mph - N/A   Overcast
1:55 AM 60.1 °F 57.9 °F 93% 29.92 in 5.0 mi Calm Calm - N/A   Overcast
2:55 AM 60.1 °F 57.9 °F 93% 29.91 in 5.0 mi Calm Calm - N/A   Overcast
3:55 AM 61.0 °F 57.9 °F 90% 29.91 in 7.0 mi Calm Calm - N/A   Overcast
4:35 AM 60.8 °F 57.2 °F 88% 29.88 in 8.0 mi Calm Calm - N/A   Overcast
4:55 AM 61.0 °F 57.9 °F 90% 29.91 in 8.0 mi Calm Calm - N/A   Overcast
5:55 AM 62.1 °F 57.9 °F 86% 29.92 in 7.0 mi Calm Calm - N/A   Overcast
6:55 AM 62.1 °F 57.9 °F 86% 29.94 in 3.0 mi Calm Calm - N/A   Overcast
7:09 AM 62.6 °F 59.0 °F 88% 29.92 in 2.5 mi Calm Calm - N/A   Overcast
7:55 AM 62.1 °F 59.0 °F 90% 29.95 in 2.5 mi Calm Calm - N/A   Overcast
8:02 AM 62.6 °F 59.0 °F 88% 29.93 in 3.0 mi Calm Calm - N/A   Overcast
8:15 AM 62.6 °F 59.0 °F 88% 29.93 in 2.5 mi Calm Calm - N/A   Overcast
8:22 AM 62.6 °F 59.0 °F 88% 29.93 in 4.0 mi Calm Calm - N/A   Overcast
8:55 AM 63.0 °F 60.1 °F 90% 29.96 in 3.0 mi Calm Calm - N/A   Overcast
9:55 AM 64.0 °F 60.1 °F 87% 29.97 in 3.0 mi Calm Calm - N/A   Overcast
10:55 AM 64.9 °F 60.1 °F 84% 29.98 in 4.0 mi NW 3.5 mph - N/A   Haze
11:34 AM 66.2 °F 60.8 °F 83% 29.95 in 4.0 mi Calm Calm - N/A   Haze
11:55 AM 66.9 °F 61.0 °F 81% 29.97 in 5.0 mi SW 3.5 mph - N/A   Haze
12:55 PM 70.0 °F 61.0 °F 73% 29.96 in 7.0 mi SSW 6.9 mph - N/A   Mostly Cloudy
1:55 PM 72.0 °F 61.0 °F 68% 29.95 in 7.0 mi SW 9.2 mph - N/A   Scattered Clouds
2:55 PM 73.0 °F 60.1 °F 64% 29.93 in 10.0 mi West 9.2 mph - N/A   Clear
3:55 PM 73.0 °F 60.1 °F 64% 29.91 in 10.0 mi West 8.1 mph - N/A   Clear
4:55 PM 73.0 °F 59.0 °F 61% 29.90 in 10.0 mi WSW 8.1 mph - N/A   Clear
5:55 PM 70.0 °F 59.0 °F 68% 29.89 in 10.0 mi West 6.9 mph - N/A   Clear
6:55 PM 68.0 °F 59.0 °F 73% 29.89 in 10.0 mi West 8.1 mph - N/A   Clear
7:55 PM 64.9 °F 59.0 °F 81% 29.91 in 10.0 mi West 4.6 mph - N/A   Clear
8:03 PM 64.4 °F 59.0 °F 83% 29.88 in 10.0 mi West 5.8 mph - N/A   Scattered Clouds
8:55 PM 64.0 °F 59.0 °F 84% 29.92 in 10.0 mi West 8.1 mph - N/A   Scattered Clouds
9:04 PM 64.4 °F 59.0 °F 83% 29.90 in 10.0 mi West 8.1 mph - N/A   Mostly Cloudy
9:55 PM 63.0 °F 57.9 °F 84% 29.93 in 10.0 mi West 5.8 mph - N/A   Overcast
10:55 PM 63.0 °F 57.9 °F 84% 29.93 in 10.0 mi West 5.8 mph - N/A   Overcast
11:38 PM 62.6 °F 57.2 °F 82% 29.90 in 10.0 mi Calm Calm - N/A   Overcast
11:55 PM 62.1 °F 57.9 °F 86% 29.94 in 10.0 mi West 3.5 mph - N/A   Overcast